[[{"header":{"parameterUnit":"m.s-1","parameterCategory":2,"la1":30.2991,"la2":30.254,"lo1":-89.0895,"lo2":-89.0444,"dy":0.0017,"dx":0.0017,"nx":28,"ny":28,"refTime":"2025-05-20T03:00:00:Z","depth":"0","parameterNumber":2,"parameterNumberName":"U-component_of_CURRENTS"},"data":[0,0,0,0,0,0,0,0,0,0,0,0,0,0,0,0,0,0,0,0,0,0,0,0,0,0,0,0,0,0,0,0,0,0,0,0,0,0,0,0,0,0,0,0,0,0,0,0,0,0,0,0,0,0,0,0,0,0,0.2687,0.2689,0,0.2773,0.2773,0.2774,0.2694,0.2692,0.269,0.2688,0.2676,0.2678,0.268,0,0,0,0,0,0,0,0,0,0,0,0,0,0.2303,0.2311,0.2687,0.2689,0.2691,0.2773,0.2773,0.2774,0.2695,0.2692,0.2689,0.2686,0.2676,0.2678,0.268,0,0,0,0,0,0,0,0,0,0,0,0,0,0.2429,0.2313,0.2687,0.2668,0.2668,0.2773,0.2773,0.2774,0.2695,0.2692,0.2688,0.2685,0.2675,0.2678,0.2681,0.2769,0,0,0.2689,0.2691,0,0,0,0,0,0,0,0,0.2422,0.2442,0.2669,0.267,0.267,0.2728,0.2635,0.2771,0.2696,0.2675,0.2687,0.2683,0.2693,0.2695,0.2707,0.2768,0.2768,0.269,0.2691,0.2693,0.2693,0,0,0,0,0,0,0,0.2414,0.2437,0.2712,0.2672,0.2672,0.2605,0.2619,0.2659,0.2694,0.2677,0.2674,0.2699,0.2691,0.2704,0.2706,0.2768,0.269,0.2692,0.2694,0.2695,0.2889,0.2892,0,0,0,0,0,0,0.2436,0.2432,0.2709,0.2715,0.2545,0.2616,0.2631,0.2705,0.2696,0.2694,0.2702,0.2695,0.2701,0.2702,0.2705,0.2787,0.2693,0.2695,0.2697,0.2885,0.2889,0.2893,0,0,0,0,0,0,0.2428,0.2462,0.2706,0.2578,0.2605,0.2628,0.271,0.2709,0.2717,0.2718,0.2711,0.2711,0.2698,0.2701,0.273,0.2786,0.2696,0.2699,0.2881,0.2887,0.2891,0.2964,0,0,0,0,0,0,0.2418,0.246,0.2513,0.2582,0.2614,0.2783,0.2715,0.2713,0.2743,0.2734,0.2725,0.272,0.2696,0.2726,0.2733,0.2788,0.2701,0.2877,0.2884,0.289,0.2958,0.2971,0.2983,0,0,0,0,0,0.2404,0.2496,0.2516,0.2549,0.2692,0.2787,0.2797,0.279,0.2747,0.2776,0.2748,0.272,0.2772,0.2731,0.2738,0.2796,0.2874,0.2882,0.2889,0.2952,0.2969,0.2983,0,0,0,0,0,0,0.2336,0.25,0.2522,0.2654,0.2723,0.2777,0.2813,0.2806,0.2811,0.279,0.2757,0.2753,0.2804,0.2802,0.2757,0.2875,0.2824,0.2833,0.2869,0.2885,0.2898,0.2867,0.2704,0,0,0,0,0,0.2361,0.2487,0.2593,0.2697,0.274,0.2778,0.2811,0.2814,0.2836,0.2833,0.2825,0.2827,0.2852,0.2863,0.2886,0.2953,0.2903,0.3001,0.3014,0.3024,0.3008,0.3007,0.3016,0.2919,0.2919,0.2918,0,0,0.2361,0.247,0.2536,0.2693,0.2742,0.2807,0.2786,0.2858,0.2882,0.2837,0.2859,0.2873,0.288,0.294,0.2966,0.2938,0.3023,0.3034,0.3042,0.302,0.3015,0.3024,0.3032,0.2924,0.2923,0.2922,0,0,0.2413,0.2528,0.2632,0.2702,0.2809,0.2841,0.2866,0.2933,0.2933,0.2983,0.2949,0.2988,0.3032,0.3042,0.3052,0.3161,0.3091,0.3189,0.3225,0.3226,0.3232,0.3237,0.3156,0.3154,0.3194,0.3195,0.3195,0,0.2388,0.255,0.2664,0.2757,0.2802,0.2856,0.2915,0.2951,0.3003,0.3005,0.2997,0.3055,0.3077,0.3123,0.3166,0.3187,0.3142,0.3158,0.3237,0.3241,0.3245,0.3161,0.3157,0.3199,0.3199,0.3198,0.3198,0,0.2518,0.2612,0.2675,0.2818,0.2879,0.2952,0.3017,0.3056,0.3066,0.3082,0.3133,0.3166,0.3184,0.3234,0.3233,0.3292,0.3233,0.3248,0.3182,0.3258,0.3166,0.316,0.3205,0.3204,0.3202,0.3201,0,0,0.25,0.2724,0.2727,0.2764,0.291,0.2952,0.3028,0.3092,0.3085,0.3164,0.3161,0.3263,0.3263,0.3277,0.3299,0.3326,0.3331,0.3306,0.3304,0.3196,0.3262,0.3089,0.3065,0.3355,0.3355,0.3355,0.3174,0,0.2534,0.2687,0.2799,0.2867,0.2926,0.3,0.3044,0.3099,0.3134,0.3149,0.321,0.3223,0.3283,0.3284,0.3333,0.3337,0.3324,0.3373,0.323,0.3223,0.3038,0.3057,0.3003,0.2826,0.3167,0.3166,0.3166,0,0.2585,0.268,0.2776,0.2857,0.2885,0.2923,0.2964,0.3017,0.3077,0.31,0.3153,0.3176,0.3244,0.3272,0.3298,0.3322,0.329,0.3287,0.328,0.3084,0.3041,0.2816,0.2801,0.2797,0.3156,0.3156,0.3157,0,0.2471,0.2623,0.2687,0.2729,0.2857,0.287,0.2915,0.298,0.2997,0.3051,0.3055,0.313,0.3134,0.3173,0.3189,0.3238,0.3164,0.3224,0.3015,0.2999,0.2904,0.2878,0.2841,0.3194,0.3194,0.3194,0.3195,0,0.2452,0.247,0.2624,0.2648,0.2656,0.277,0.2768,0.2822,0.2885,0.2881,0.3002,0.2994,0.3113,0.3098,0.3134,0.3028,0.3108,0.299,0.2947,0.2924,0.2904,0.2854,0.2863,0.3188,0.3189,0.319,0.3192,0,0.2307,0.2431,0.2468,0.2586,0.2606,0.2593,0.2674,0.2672,0.2755,0.2755,0.2768,0.2865,0.2847,0.2898,0.2905,0.2895,0.2758,0.2775,0.2691,0.2642,0.2455,0.2469,0.2139,0.2098,0.2526,0.252,0.2516,0,0.2263,0.2284,0.2376,0.2378,0.2423,0.2446,0.246,0.2573,0.2585,0.2661,0.2639,0.2634,0.2609,0.2536,0.2535,0.2476,0.2493,0.2342,0.2446,0.2398,0.2387,0.2274,0.2262,0.2342,0.2336,0.2332,0.2328,0,0.2145,0.2171,0.221,0.2216,0.2223,0.2241,0.2276,0.2272,0.2389,0.2393,0.2374,0.2359,0.2316,0.2249,0.2161,0.2151,0.2243,0.2239,0.2259,0.2269,0.2078,0.2035,0.2459,0.2288,0.2292,0.2295,0.2297,0.2299,0.2023,0.2004,0.2051,0.2034,0.2045,0.2021,0.1994,0.2035,0.2018,0.2018,0.2087,0.2039,0.2069,0.1965,0.1921,0.1857,0.1868,0.1874,0.1896,0.1782,0.1741,0.2005,0.1751,0.1752,0.1753,0.1754,0.1754,0,0.1882,0.1884,0.1869,0.1849,0.1802,0.1861,0.1862,0.1826,0.1757,0.1781,0.1751,0.1735,0.1674,0.1712,0.1679,0.16,0.1562,0.1568,0.1515,0.1532,0.1846,0.1847,0.152,0.152,0.152,0.152,0.152,0.152,0.1808,0.1761,0.1759,0.1633,0.161,0.1535,0.1517,0.1468,0.1477,0.1403,0.1394,0.1431,0.1534,0.1529,0.1486,0.1465,0.1421,0.1243,0.1276,0.1665,0.17,0.1734,0.1742,0.1398,0.1398,0.0936,0.0933,0.093]},{"header":{"parameterUnit":"m.s-1","parameterCategory":2,"la1":30.2991,"la2":30.254,"lo1":-89.0895,"lo2":-89.0444,"dy":0.0017,"dx":0.0017,"nx":28,"ny":28,"refTime":"2025-05-20T03:00:00:Z","depth":"0","parameterNumber":3,"parameterNumberName":"V-component_of_CURRENTS"},"data":[0,0,0,0,0,0,0,0,0,0,0,0,0,0,0,0,0,0,0,0,0,0,0,0,0,0,0,0,0,0,0,0,0,0,0,0,0,0,0,0,0,0,0,0,0,0,0,0,0,0,0,0,0,0,0,0,0,0,-0.0413,-0.0413,0,-0.0374,-0.0374,-0.0373,-0.0348,-0.0348,-0.0349,-0.0349,-0.0159,-0.0154,-0.0149,0,0,0,0,0,0,0,0,0,0,0,0,0,-0.0276,-0.0279,-0.0413,-0.0413,-0.0413,-0.0375,-0.0374,-0.0373,-0.0348,-0.0348,-0.0349,-0.0349,-0.0161,-0.0155,-0.0148,0,0,0,0,0,0,0,0,0,0,0,0,0,-0.0292,-0.028,-0.0413,-0.04,-0.0399,-0.0375,-0.0374,-0.0372,-0.0348,-0.0349,-0.0349,-0.0349,-0.0163,-0.0155,-0.0147,-0.0087,0,0,-0.0123,-0.0119,0,0,0,0,0,0,0,0,-0.0291,-0.0296,-0.0402,-0.0401,-0.04,-0.0371,-0.0256,-0.0271,-0.0348,-0.0362,-0.0349,-0.035,-0.0219,-0.0207,-0.0193,-0.0079,-0.007,-0.0122,-0.0117,-0.0114,-0.0111,0,0,0,0,0,0,0,-0.029,-0.0296,-0.0393,-0.0402,-0.0401,-0.0331,-0.0335,-0.0258,-0.0281,-0.0361,-0.036,-0.0364,-0.0217,-0.0201,-0.0188,-0.0068,-0.0122,-0.0115,-0.011,-0.0107,0.0131,0.0133,0,0,0,0,0,0,-0.0316,-0.0297,-0.0394,-0.0392,-0.0351,-0.0335,-0.0339,-0.0376,-0.0285,-0.0275,-0.0364,-0.0363,-0.0214,-0.0197,-0.0181,-0.0068,-0.0114,-0.0106,-0.0102,0.013,0.0131,0.0133,0,0,0,0,0,0,-0.0314,-0.0326,-0.0396,-0.0345,-0.035,-0.0339,-0.0379,-0.0375,-0.036,-0.029,-0.0276,-0.0354,-0.0214,-0.0192,-0.0111,-0.0062,-0.0103,-0.0095,0.0128,0.013,0.0132,0.0134,0,0,0,0,0,0,-0.031,-0.0326,-0.0347,-0.0349,-0.0354,-0.0366,-0.0379,-0.0374,-0.0364,-0.0363,-0.0276,-0.026,-0.0213,-0.0123,-0.0103,-0.0052,-0.0089,0.0126,0.0129,0.0132,0.0132,0.0136,0.014,0,0,0,0,0,-0.0306,-0.0331,-0.0349,-0.0359,-0.039,-0.0366,-0.036,-0.0348,-0.0363,-0.034,-0.0296,-0.0263,-0.0091,-0.0116,-0.0092,-0.0037,0.0125,0.0128,0.0131,0.0131,0.0136,0.014,0,0,0,0,0,0,-0.0265,-0.0332,-0.0351,-0.0392,-0.0376,-0.0363,-0.0349,-0.0349,-0.0299,-0.0297,-0.0242,-0.022,-0.0132,-0.0088,-0.0117,0.0037,0.0023,0.0031,0.0015,0.002,0.0024,0.0037,-0.0082,0,0,0,0,0,-0.0275,-0.0322,-0.0342,-0.0368,-0.0368,-0.0361,-0.035,-0.0341,-0.0309,-0.029,-0.0233,-0.0168,-0.0098,-0.0047,0.0021,0.0112,0.0112,0.0162,0.0165,0.0168,0.0194,0.0203,0.0209,0.0144,0.0144,0.0144,0,0,-0.0265,-0.0307,-0.0331,-0.0362,-0.0356,-0.0319,-0.0353,-0.0334,-0.0288,-0.0271,-0.0186,-0.0152,-0.0076,0.0018,0.0064,0.0064,0.0182,0.0172,0.0174,0.02,0.0207,0.0213,0.0218,0.0146,0.0146,0.0146,0,0,-0.0233,-0.0307,-0.0313,-0.0302,-0.03,-0.0293,-0.029,-0.0271,-0.0251,-0.0177,-0.0159,-0.0101,0.0014,0.0075,0.0121,0.019,0.0192,0.0209,0.0258,0.0265,0.027,0.0275,0.0255,0.0258,0.0222,0.0222,0.0222,0,-0.0209,-0.0231,-0.0295,-0.027,-0.025,-0.0279,-0.0228,-0.0207,-0.0156,-0.0123,-0.0142,-0.0001,0.0051,0.0167,0.0183,0.0204,0.0186,0.0231,0.0268,0.0272,0.0277,0.0256,0.026,0.0223,0.0223,0.0223,0.0223,0,-0.0159,-0.0162,-0.0157,-0.0152,-0.0134,-0.01,-0.009,-0.0059,-0.0054,-0.0027,0.006,0.0105,0.0189,0.021,0.0224,0.0298,0.0265,0.0255,0.0249,0.0283,0.0259,0.0263,0.0224,0.0223,0.0223,0.0223,0,0,-0.0111,-0.0125,-0.011,-0.0082,-0.0071,-0.0042,0.0014,0.007,0.0117,0.015,0.0221,0.0306,0.0292,0.0341,0.0351,0.0365,0.0362,0.0323,0.0323,0.0292,0.0347,0.0339,0.0341,0.0341,0.0342,0.0343,0.0306,0,-0.003,0.0025,0.0001,0.0095,0.0134,0.0119,0.0179,0.022,0.024,0.0299,0.0319,0.0385,0.0352,0.0377,0.0385,0.0377,0.0375,0.0372,0.0332,0.0331,0.031,0.0347,0.0373,0.0344,0.0309,0.0309,0.0309,0,0.0063,0.0081,0.0161,0.0211,0.0227,0.0273,0.0341,0.0389,0.0439,0.0452,0.0489,0.0486,0.0529,0.0472,0.047,0.0458,0.0409,0.0383,0.0381,0.0385,0.0331,0.0313,0.0351,0.0343,0.0314,0.0314,0.0313,0,0.0156,0.0214,0.0272,0.0291,0.0333,0.0369,0.0394,0.0443,0.0493,0.0533,0.0565,0.059,0.0605,0.0559,0.0496,0.0475,0.0466,0.043,0.0377,0.0374,0.0401,0.0399,0.0426,0.042,0.042,0.0421,0.0421,0,0.0258,0.0322,0.0313,0.0354,0.044,0.0435,0.0527,0.0551,0.0596,0.0666,0.0636,0.0684,0.0622,0.0603,0.0527,0.0468,0.0485,0.0404,0.0379,0.04,0.0399,0.0398,0.0376,0.0419,0.0419,0.042,0.042,0,0.0362,0.0356,0.0436,0.0469,0.0484,0.0543,0.0596,0.0659,0.0675,0.0757,0.0767,0.0765,0.0725,0.0654,0.0585,0.0519,0.0455,0.0424,0.044,0.042,0.0364,0.0341,0.0349,0.0375,0.0366,0.0366,0.0366,0,0.0409,0.0454,0.0512,0.0553,0.0566,0.0632,0.068,0.0704,0.0756,0.0809,0.0853,0.0834,0.0831,0.0723,0.0605,0.0483,0.0453,0.0425,0.0409,0.039,0.0345,0.0331,0.0353,0.0426,0.0426,0.0427,0.0427,0,0.0506,0.0523,0.0577,0.0646,0.0698,0.0765,0.0817,0.0868,0.0896,0.0946,0.0983,0.0979,0.0875,0.0782,0.0621,0.0526,0.0447,0.0427,0.0418,0.042,0.0398,0.0402,0.0397,0.043,0.0429,0.0429,0.0429,0.0429,0.0569,0.0623,0.0672,0.0744,0.0806,0.0866,0.0917,0.0964,0.1033,0.109,0.1081,0.1098,0.0973,0.0757,0.0628,0.0461,0.0451,0.0419,0.0394,0.0384,0.0422,0.0414,0.0415,0.0415,0.0414,0.0414,0.0414,0,0.0629,0.068,0.0757,0.0827,0.0887,0.0902,0.0988,0.1029,0.1091,0.1169,0.1193,0.1195,0.1015,0.0836,0.06,0.0478,0.0439,0.0412,0.0413,0.0439,0.0445,0.0463,0.0463,0.0463,0.0463,0.0463,0.0463,0.0463,0.0659,0.0738,0.0772,0.0866,0.0909,0.0974,0.1017,0.1091,0.1167,0.1276,0.1344,0.1393,0.1326,0.0836,0.0572,0.0487,0.0449,0.039,0.0392,0.0396,0.0396,0.0395,0.041,0.0398,0.0398,0.043,0.043,0.043]}],[{"header":{"parameterUnit":"m.s-1","parameterCategory":2,"la1":30.2991,"la2":30.254,"lo1":-89.0895,"lo2":-89.0444,"dy":0.0017,"dx":0.0017,"nx":28,"ny":28,"refTime":"2025-05-20T03:00:00:Z","depth":"2","parameterNumber":2,"parameterNumberName":"U-component_of_CURRENTS"},"data":[0,0,0,0,0,0,0,0,0,0,0,0,0,0,0,0,0,0,0,0,0,0,0,0,0,0,0,0,0,0,0,0,0,0,0,0,0,0,0,0,0,0,0,0,0,0,0,0,0,0,0,0,0,0,0,0,0,0,0.2104,0.2104,0,0.228,0.2283,0.2287,0.2411,0.2409,0.2408,0.2407,0.2438,0.244,0.2442,0,0,0,0,0,0,0,0,0,0,0,0,0,0.1882,0.1887,0.2104,0.2104,0.2104,0.2279,0.2284,0.2288,0.2411,0.2409,0.2408,0.2407,0.2438,0.244,0.2442,0,0,0,0,0,0,0,0,0,0,0,0,0,0.2031,0.1889,0.2104,0.217,0.2176,0.2278,0.2284,0.2289,0.2411,0.2409,0.2408,0.2406,0.2437,0.244,0.2442,0.2491,0,0,0.2451,0.2452,0,0,0,0,0,0,0,0,0.2023,0.2042,0.216,0.2166,0.2172,0.2302,0.2216,0.2342,0.2411,0.2345,0.2407,0.2406,0.2366,0.2375,0.2445,0.2492,0.2494,0.2451,0.2452,0.2454,0.2454,0,0,0,0,0,0,0,0.2012,0.2035,0.2196,0.216,0.2167,0.2192,0.2214,0.2243,0.2377,0.2351,0.2355,0.234,0.2371,0.2442,0.2445,0.2494,0.2451,0.2453,0.2455,0.2456,0.2612,0.2614,0,0,0,0,0,0,0.1949,0.2026,0.219,0.2199,0.2067,0.2196,0.2221,0.228,0.238,0.2388,0.2341,0.2344,0.2438,0.2442,0.2446,0.2557,0.2454,0.2456,0.2458,0.2609,0.2613,0.2615,0,0,0,0,0,0,0.1945,0.1965,0.2182,0.2093,0.212,0.2199,0.2265,0.2284,0.2358,0.237,0.238,0.2392,0.2437,0.2442,0.2464,0.2556,0.2457,0.246,0.2607,0.261,0.2614,0.2745,0,0,0,0,0,0,0.1939,0.1965,0.203,0.2092,0.2122,0.2266,0.2265,0.2288,0.234,0.2348,0.2416,0.2418,0.2436,0.246,0.2467,0.2558,0.2462,0.2603,0.2608,0.2613,0.2738,0.2753,0.2766,0,0,0,0,0,0.1932,0.1989,0.2035,0.2054,0.2198,0.2266,0.229,0.235,0.2343,0.2408,0.2416,0.2417,0.2496,0.2463,0.2471,0.2565,0.2601,0.2607,0.2612,0.2731,0.275,0.2766,0,0,0,0,0,0,0.1911,0.2008,0.2058,0.2143,0.2212,0.2278,0.2339,0.2355,0.2427,0.2435,0.243,0.2435,0.2505,0.2497,0.246,0.2622,0.2557,0.2564,0.2645,0.2663,0.2677,0.2648,0.2464,0,0,0,0,0,0.1938,0.2024,0.2099,0.217,0.2216,0.2286,0.2328,0.2369,0.2405,0.2442,0.2481,0.2511,0.2542,0.2562,0.2606,0.2672,0.2602,0.2741,0.2756,0.2768,0.2749,0.2724,0.2733,0.2634,0.2634,0.2634,0,0,0.1938,0.2002,0.205,0.2173,0.2248,0.2343,0.2317,0.2395,0.2462,0.2425,0.255,0.2565,0.2567,0.2663,0.2694,0.2662,0.2757,0.2775,0.2786,0.2759,0.2731,0.274,0.2748,0.2638,0.2637,0.2636,0,0,0.1982,0.2062,0.2171,0.2237,0.2338,0.2387,0.2402,0.2505,0.2557,0.264,0.2636,0.2681,0.2754,0.2787,0.2796,0.2902,0.2834,0.2936,0.299,0.2968,0.2975,0.298,0.2884,0.2879,0.2944,0.2944,0.2944,0,0.1987,0.2133,0.2202,0.2314,0.2352,0.2404,0.2499,0.2573,0.2664,0.2674,0.2692,0.2782,0.2817,0.2863,0.2929,0.294,0.2873,0.2929,0.2984,0.2988,0.2992,0.2891,0.2885,0.2951,0.295,0.295,0.2949,0,0.2148,0.2236,0.2288,0.2465,0.2526,0.26,0.2678,0.2752,0.2793,0.2834,0.2901,0.2949,0.2972,0.3034,0.3021,0.3079,0.3003,0.3005,0.2936,0.3009,0.2899,0.2889,0.2961,0.2959,0.2956,0.2955,0,0,0.2168,0.2374,0.238,0.2435,0.2596,0.2626,0.2751,0.2833,0.2836,0.297,0.2975,0.3104,0.3094,0.3101,0.3112,0.3127,0.3126,0.3086,0.3082,0.2978,0.3006,0.2858,0.2832,0.3132,0.3131,0.3131,0.291,0,0.2264,0.2446,0.2538,0.2642,0.2715,0.2773,0.2845,0.2908,0.2954,0.2984,0.3033,0.306,0.3126,0.3121,0.3162,0.313,0.311,0.318,0.2958,0.2949,0.2802,0.2821,0.2697,0.2482,0.29,0.2899,0.2898,0,0.237,0.2462,0.2605,0.2655,0.2694,0.2757,0.279,0.2869,0.292,0.2946,0.2995,0.3012,0.3069,0.31,0.3084,0.3118,0.3067,0.3044,0.3035,0.2838,0.2786,0.2482,0.2448,0.2881,0.2882,0.2883,0.2885,0,0.2276,0.2448,0.2536,0.2577,0.2705,0.2722,0.2775,0.2835,0.285,0.2896,0.2887,0.2955,0.2943,0.2958,0.2957,0.3004,0.2883,0.2931,0.2731,0.2716,0.2533,0.2503,0.2876,0.2876,0.2877,0.2877,0.2878,0,0.228,0.2303,0.2478,0.2505,0.2523,0.2634,0.2632,0.2683,0.2735,0.2718,0.2836,0.2806,0.2909,0.2871,0.2892,0.276,0.2821,0.2709,0.2656,0.2573,0.255,0.2846,0.2845,0.2869,0.2871,0.2873,0.2874,0,0.2122,0.2265,0.2314,0.245,0.2473,0.2464,0.2536,0.2523,0.2598,0.2576,0.2586,0.2657,0.261,0.2655,0.2621,0.2612,0.2544,0.2468,0.2327,0.2263,0.2399,0.2409,0.222,0.2213,0.2207,0.2202,0.2198,0,0.2075,0.2104,0.2228,0.2231,0.228,0.2305,0.2311,0.2422,0.2419,0.2465,0.2426,0.2398,0.2351,0.2242,0.2237,0.2166,0.2299,0.1966,0.2065,0.2367,0.2335,0.2354,0.2371,0.1859,0.1853,0.1847,0.1843,0,0.1944,0.1987,0.2039,0.2059,0.2064,0.2075,0.2102,0.2084,0.2192,0.2176,0.2124,0.2094,0.2022,0.1906,0.1826,0.1797,0.1993,0.1848,0.2185,0.2056,0.2013,0.1987,0.2018,0.1795,0.18,0.1804,0.1806,0.1808,0.1819,0.1805,0.1877,0.1865,0.1871,0.1835,0.1799,0.1826,0.1793,0.1771,0.1818,0.1731,0.1751,0.1563,0.149,0.1457,0.1609,0.1582,0.1605,0.1632,0.1642,0.1592,0.1292,0.1294,0.1295,0.1297,0.1298,0,0.1677,0.1686,0.1677,0.1666,0.161,0.1675,0.1652,0.1603,0.1519,0.152,0.1474,0.1313,0.1221,0.1249,0.1136,0.1112,0.1184,0.1061,0.1183,0.1229,0.127,0.127,0.0816,0.0815,0.0813,0.0812,0,0,0.1604,0.1555,0.1557,0.1429,0.1415,0.1335,0.1307,0.1238,0.1226,0.1117,0.1076,0.1151,0.12,0.0993,0.0969,0.0876,0.105,0.0833,0.1223,0.1414,0.1454,0.1571,0.1619,0,0,0,0,0]},{"header":{"parameterUnit":"m.s-1","parameterCategory":2,"la1":30.2991,"la2":30.254,"lo1":-89.0895,"lo2":-89.0444,"dy":0.0017,"dx":0.0017,"nx":28,"ny":28,"refTime":"2025-05-20T03:00:00:Z","depth":"2","parameterNumber":3,"parameterNumberName":"V-component_of_CURRENTS"},"data":[0,0,0,0,0,0,0,0,0,0,0,0,0,0,0,0,0,0,0,0,0,0,0,0,0,0,0,0,0,0,0,0,0,0,0,0,0,0,0,0,0,0,0,0,0,0,0,0,0,0,0,0,0,0,0,0,0,0,-0.052,-0.0521,0,-0.0482,-0.0481,-0.048,-0.0433,-0.0433,-0.0433,-0.0434,-0.0238,-0.0232,-0.0227,0,0,0,0,0,0,0,0,0,0,0,0,0,-0.0332,-0.0336,-0.052,-0.0521,-0.0521,-0.0483,-0.0481,-0.048,-0.0433,-0.0433,-0.0433,-0.0434,-0.0239,-0.0233,-0.0227,0,0,0,0,0,0,0,0,0,0,0,0,0,-0.0357,-0.0338,-0.052,-0.0501,-0.05,-0.0483,-0.0481,-0.0479,-0.0433,-0.0433,-0.0434,-0.0434,-0.0242,-0.0234,-0.0226,-0.0169,0,0,-0.0201,-0.0197,0,0,0,0,0,0,0,0,-0.0356,-0.0363,-0.0503,-0.0502,-0.0501,-0.0472,-0.0343,-0.0371,-0.0433,-0.0447,-0.0434,-0.0434,-0.0308,-0.0294,-0.0274,-0.016,-0.0152,-0.02,-0.0195,-0.0192,-0.0189,0,0,0,0,0,0,0,-0.0354,-0.0363,-0.0495,-0.0504,-0.0503,-0.0419,-0.0424,-0.0347,-0.0365,-0.0446,-0.0445,-0.0457,-0.0305,-0.0282,-0.0269,-0.0149,-0.02,-0.0193,-0.0188,-0.0185,0.0052,0.0054,0,0,0,0,0,0,-0.0392,-0.0363,-0.0496,-0.0495,-0.0439,-0.0424,-0.0429,-0.0472,-0.037,-0.0359,-0.0457,-0.0455,-0.0296,-0.0278,-0.0262,-0.0142,-0.0192,-0.0184,-0.018,0.0051,0.0053,0.0054,0,0,0,0,0,0,-0.0389,-0.0406,-0.0498,-0.0433,-0.0441,-0.043,-0.0477,-0.0472,-0.045,-0.0382,-0.0365,-0.0443,-0.0295,-0.0273,-0.0189,-0.0136,-0.0181,-0.0173,0.0049,0.0051,0.0053,0.0067,0,0,0,0,0,0,-0.0384,-0.0405,-0.0432,-0.0438,-0.0446,-0.0471,-0.0478,-0.0471,-0.0462,-0.0459,-0.0364,-0.0346,-0.0294,-0.0202,-0.0181,-0.0126,-0.0167,0.0047,0.005,0.0053,0.0065,0.007,0.0073,0,0,0,0,0,-0.0378,-0.0412,-0.0434,-0.0449,-0.0491,-0.0471,-0.0464,-0.0449,-0.0462,-0.0433,-0.0384,-0.0349,-0.017,-0.0194,-0.017,-0.0111,0.0046,0.0049,0.0052,0.0063,0.0069,0.0073,0,0,0,0,0,0,-0.0321,-0.0413,-0.0435,-0.0492,-0.0479,-0.0466,-0.045,-0.045,-0.0392,-0.0387,-0.0329,-0.0306,-0.0214,-0.0171,-0.0199,-0.0038,-0.0056,-0.0048,-0.0056,-0.005,-0.0046,-0.0031,-0.016,0,0,0,0,0,-0.0335,-0.0398,-0.0431,-0.0466,-0.0468,-0.0461,-0.0451,-0.0441,-0.0406,-0.0382,-0.0321,-0.0252,-0.018,-0.0127,-0.0057,0.0037,0.0035,0.0089,0.0093,0.0096,0.0123,0.0134,0.0141,0.0065,0.0065,0.0065,0,0,-0.0318,-0.0381,-0.041,-0.046,-0.0452,-0.0413,-0.0451,-0.0433,-0.0383,-0.0366,-0.0268,-0.0234,-0.0158,-0.0057,-0.001,-0.0011,0.0112,0.0101,0.0103,0.0129,0.0138,0.0145,0.0151,0.0067,0.0066,0.0066,0,0,-0.0283,-0.0374,-0.0388,-0.038,-0.039,-0.0383,-0.0382,-0.0361,-0.0337,-0.0259,-0.0238,-0.0178,-0.0059,0.0006,0.0052,0.0124,0.0123,0.0142,0.0198,0.0206,0.0212,0.0218,0.0194,0.0197,0.0157,0.0157,0.0157,0,-0.025,-0.0288,-0.037,-0.0349,-0.0331,-0.0367,-0.0312,-0.0287,-0.0234,-0.0201,-0.0218,-0.0071,-0.0018,0.0102,0.0122,0.0141,0.012,0.0169,0.021,0.0216,0.0221,0.0196,0.0199,0.0158,0.0158,0.0157,0.0157,0,-0.02,-0.0212,-0.0209,-0.0214,-0.0198,-0.0163,-0.0156,-0.0121,-0.0116,-0.0088,0.0002,0.0048,0.0134,0.0156,0.0168,0.0246,0.0208,0.0198,0.0191,0.0229,0.02,0.0203,0.0159,0.0159,0.0158,0.0158,0,0,-0.0146,-0.0174,-0.016,-0.0132,-0.0127,-0.01,-0.0037,0.0019,0.0067,0.0105,0.0179,0.0268,0.025,0.0299,0.0306,0.0322,0.0323,0.0276,0.0276,0.0243,0.0306,0.0292,0.0293,0.0302,0.0303,0.0305,0.0258,0,-0.0058,-0.0009,-0.0043,0.0057,0.0096,0.0078,0.0143,0.0184,0.0204,0.0266,0.0284,0.0352,0.0316,0.0339,0.035,0.0337,0.0337,0.0335,0.0285,0.0284,0.0259,0.03,0.0297,0.0257,0.0261,0.0262,0.0262,0,0.0035,0.0045,0.013,0.0176,0.0193,0.0243,0.0312,0.0363,0.0414,0.0427,0.0466,0.0459,0.0503,0.0444,0.0438,0.0427,0.0374,0.0346,0.0343,0.0338,0.0279,0.0229,0.0263,0.0267,0.0267,0.0267,0.0266,0,0.013,0.0186,0.0244,0.0265,0.0306,0.0344,0.0369,0.0419,0.0469,0.0512,0.0543,0.0569,0.058,0.0535,0.0464,0.0443,0.0429,0.0394,0.0332,0.0328,0.0327,0.0322,0.0385,0.0385,0.0385,0.0385,0.0386,0,0.0233,0.0297,0.0287,0.0328,0.0415,0.041,0.0505,0.0529,0.0576,0.0642,0.0616,0.0659,0.0598,0.0575,0.0496,0.0428,0.0448,0.036,0.0333,0.0328,0.0324,0.0343,0.0339,0.0384,0.0384,0.0384,0.0385,0,0.0338,0.0332,0.0411,0.0445,0.0459,0.0519,0.0572,0.0634,0.0653,0.073,0.074,0.0734,0.0686,0.0616,0.0543,0.0476,0.041,0.0374,0.0358,0.0331,0.0286,0.0283,0.0307,0.0306,0.0306,0.0306,0.0305,0,0.0384,0.0428,0.0487,0.0525,0.0538,0.0604,0.065,0.0679,0.0727,0.0775,0.0813,0.0789,0.0774,0.066,0.0542,0.0417,0.0398,0.0331,0.0315,0.0316,0.0286,0.0284,0.0282,0.0295,0.0295,0.0294,0.0294,0,0.0474,0.0493,0.0545,0.0611,0.0661,0.0728,0.0776,0.0825,0.0852,0.0895,0.0917,0.0904,0.0794,0.0676,0.0516,0.0424,0.0355,0.0321,0.0347,0.0322,0.0304,0.0275,0.0273,0.0292,0.0292,0.0292,0.0292,0.0292,0.0531,0.0582,0.0628,0.0697,0.0757,0.0812,0.0861,0.0901,0.0961,0.1,0.0986,0.0959,0.0829,0.062,0.0472,0.0322,0.0335,0.0274,0.0275,0.0277,0.0292,0.0275,0.0257,0.0257,0.0257,0.0257,0.0257,0,0.0576,0.0625,0.0698,0.0765,0.082,0.084,0.0919,0.095,0.0996,0.1042,0.1048,0.0904,0.0771,0.0617,0.0402,0.0274,0.0252,0.0216,0.0224,0.0228,0.0231,0.0244,0.0195,0.0195,0.0194,0.0194,0,0,0.0597,0.0665,0.0698,0.0784,0.0829,0.0892,0.0932,0.0984,0.1031,0.1048,0.1038,0.1015,0.0832,0.0659,0.0474,0.0346,0.0314,0.0305,0.0369,0.0406,0.0411,0.0279,0.0305,0,0,0,0,0]}],[{"header":{"parameterUnit":"m.s-1","parameterCategory":2,"la1":30.2991,"la2":30.254,"lo1":-89.0895,"lo2":-89.0444,"dy":0.0017,"dx":0.0017,"nx":28,"ny":28,"refTime":"2025-05-20T03:00:00:Z","depth":"4","parameterNumber":2,"parameterNumberName":"U-component_of_CURRENTS"},"data":[0,0,0,0,0,0,0,0,0,0,0,0,0,0,0,0,0,0,0,0,0,0,0,0,0,0,0,0,0,0,0,0,0,0,0,0,0,0,0,0,0,0,0,0,0,0,0,0,0,0,0,0,0,0,0,0,0,0,-0.0157,-0.0158,0,-0.0122,-0.012,-0.0119,-0.0037,-0.0037,-0.0037,-0.0036,0.0116,0.0119,0.0123,0,0,0,0,0,0,0,0,0,0,0,0,0,0.0231,0.0222,-0.0157,-0.0158,-0.0159,-0.0122,-0.012,-0.0119,-0.0038,-0.0037,-0.0037,-0.0036,0.0114,0.0119,0.0123,0,0,0,0,0,0,0,0,0,0,0,0,0,0.0156,0.0219,-0.0157,-0.0124,-0.0122,-0.0123,-0.012,-0.0118,-0.0038,-0.0037,-0.0036,-0.0036,0.0113,0.0118,0.0124,0.0145,0,0,0.014,0.0143,0,0,0,0,0,0,0,0,0.0159,0.0143,-0.0128,-0.0126,-0.0124,-0.0096,0.0071,-0.0029,-0.0038,-0.0055,-0.0036,-0.0035,0.0046,0.0057,0.0081,0.0152,0.0158,0.0141,0.0144,0.0147,0.0148,0,0,0,0,0,0,0,0.0164,0.0144,-0.0129,-0.0129,-0.0127,0.002,0.0008,0.0055,0.0005,-0.0053,-0.0051,-0.0069,0.005,0.0075,0.0085,0.0161,0.0141,0.0146,0.0149,0.0151,0.0595,0.0603,0,0,0,0,0,0,0.0109,0.0145,-0.013,-0.0129,0.0007,0.001,-0.0003,-0.0094,0.0002,0.0012,-0.007,-0.0066,0.0065,0.0078,0.009,0.0304,0.0146,0.0152,0.0155,0.0587,0.0597,0.0606,0,0,0,0,0,0,0.0116,0.0081,-0.0132,0.0005,-0.0014,-0.0002,-0.0102,-0.0094,-0.003,-0.0015,0.0001,-0.0012,0.0066,0.0083,0.0223,0.0303,0.0154,0.0159,0.0577,0.059,0.0601,0.0613,0,0,0,0,0,0,0.0126,0.0082,0.0021,-0.0004,-0.0025,-0.0101,-0.0104,-0.0094,-0.0052,-0.0044,0.004,0.0052,0.0068,0.0215,0.0228,0.0308,0.0163,0.0566,0.0582,0.0597,0.0602,0.0625,0.0644,0,0,0,0,0,0.0138,0.0036,0.0016,-0.0016,-0.0122,-0.0101,-0.0094,-0.0069,-0.0049,-0.0008,0.0086,0.0052,0.0328,0.0225,0.0239,0.0321,0.0558,0.0578,0.0596,0.0593,0.062,0.0644,0,0,0,0,0,0,0.02,0.0032,0.0011,-0.0132,-0.0101,-0.0092,-0.007,-0.0044,0.0059,0.0092,0.0122,0.0144,0.03,0.0344,0.0229,0.0521,0.0453,0.0476,0.0447,0.0473,0.0493,0.0455,0.0168,0,0,0,0,0,0.0169,0.0033,-0.0018,-0.0109,-0.0099,-0.0067,-0.005,-0.0017,0.0047,0.0094,0.0166,0.0282,0.0386,0.0451,0.0545,0.0677,0.0657,0.0769,0.079,0.0806,0.0802,0.0902,0.0927,0.0669,0.0669,0.0668,0,0,0.0158,0.0061,-0.0019,-0.0104,-0.0076,-0.0018,-0.0048,0.0,0.0094,0.0095,0.0276,0.0339,0.0443,0.0602,0.0681,0.0645,0.0862,0.0831,0.0841,0.0829,0.0924,0.0947,0.0968,0.0682,0.068,0.0678,0,0,0.0149,0.0011,-0.0051,-0.0024,0.0001,0.003,0.0055,0.0119,0.0194,0.0346,0.0395,0.0505,0.0683,0.0756,0.0816,0.1022,0.0962,0.1099,0.1163,0.1261,0.1278,0.1294,0.1214,0.1223,0.1116,0.1116,0.1116,0,0.0198,0.0073,-0.0033,-0.0005,0.0034,0.0065,0.0141,0.022,0.0345,0.0422,0.043,0.0685,0.075,0.091,0.1003,0.1051,0.1057,0.1022,0.1272,0.1288,0.1304,0.1219,0.1228,0.1119,0.1119,0.1119,0.1118,0,0.0154,0.0137,0.0138,0.0148,0.0183,0.0256,0.033,0.0442,0.053,0.0602,0.0782,0.0858,0.0997,0.1062,0.1091,0.1266,0.1208,0.1258,0.1159,0.1327,0.123,0.1239,0.1123,0.1122,0.1121,0.1121,0,0,0.0179,0.0111,0.0149,0.0177,0.028,0.0294,0.048,0.0619,0.0719,0.0855,0.0979,0.1152,0.1153,0.1226,0.1262,0.1351,0.1428,0.137,0.1374,0.1202,0.1536,0.1402,0.1396,0.1537,0.1541,0.1545,0.1385,0,0.0268,0.0259,0.0244,0.0372,0.0406,0.05,0.065,0.0778,0.0891,0.1026,0.1107,0.1252,0.123,0.1297,0.1371,0.1434,0.1473,0.1459,0.1478,0.1475,0.1266,0.1413,0.1559,0.1391,0.1393,0.1394,0.1395,0,0.0324,0.0295,0.0356,0.0438,0.0471,0.0586,0.0763,0.0899,0.1096,0.1168,0.1275,0.1346,0.1464,0.1453,0.1534,0.1536,0.1547,0.1563,0.1559,0.1438,0.1364,0.1228,0.141,0.1409,0.1408,0.1407,0.1406,0,0.0345,0.0428,0.044,0.0471,0.0559,0.0677,0.0794,0.0983,0.109,0.1285,0.1344,0.1461,0.1502,0.1592,0.1586,0.1617,0.163,0.1671,0.1516,0.1497,0.1639,0.1625,0.1755,0.1755,0.1755,0.1756,0.1756,0,0.0432,0.0489,0.0458,0.047,0.0598,0.0677,0.087,0.0993,0.1164,0.1249,0.141,0.1442,0.1569,0.1585,0.1605,0.1525,0.163,0.1521,0.1493,0.1642,0.1632,0.1636,0.1625,0.175,0.1751,0.1752,0.1753,0,0.0498,0.046,0.0509,0.0567,0.0608,0.0724,0.0924,0.1019,0.1181,0.1287,0.1366,0.1453,0.1474,0.1502,0.157,0.1494,0.1496,0.1445,0.1466,0.1441,0.127,0.1263,0.1274,0.1269,0.1265,0.1261,0.1258,0,0.0504,0.0504,0.0545,0.0581,0.0647,0.08,0.0896,0.1053,0.1114,0.1252,0.126,0.1351,0.1389,0.1289,0.1359,0.1329,0.1343,0.1267,0.141,0.1271,0.1243,0.1243,0.1242,0.1251,0.125,0.1249,0.1248,0,0.0544,0.0566,0.0572,0.0616,0.0707,0.0783,0.0916,0.0941,0.1066,0.118,0.1174,0.1223,0.1182,0.1203,0.116,0.1165,0.1305,0.1224,0.1235,0.1369,0.1244,0.122,0.1224,0.1233,0.1235,0.1237,0.1237,0,0.0608,0.0624,0.0593,0.0659,0.072,0.073,0.0825,0.0856,0.0928,0.1043,0.1011,0.1086,0.1138,0.1109,0.1085,0.1067,0.1096,0.1075,0.1095,0.1112,0.1148,0.097,0.0859,0,0,0,0,0,0.065,0.0593,0.0614,0.0646,0.0693,0.0713,0.0774,0.0841,0.0918,0.0882,0.0957,0.0948,0.0949,0.0981,0.0939,0.102,0.109,0.0964,0.1073,0.1151,0.1168,0.1234,0,0,0,0,0,0,0.0657,0.0639,0.0583,0.0578,0.0596,0.0629,0.0655,0.0716,0.071,0.0799,0.0811,0.0886,0.0907,0.0973,0.0925,0.0932,0.0976,0.101,0.1007,0.1141,0.1157,0.1171,0.1244,0,0,0,0,0]},{"header":{"parameterUnit":"m.s-1","parameterCategory":2,"la1":30.2991,"la2":30.254,"lo1":-89.0895,"lo2":-89.0444,"dy":0.0017,"dx":0.0017,"nx":28,"ny":28,"refTime":"2025-05-20T03:00:00:Z","depth":"4","parameterNumber":3,"parameterNumberName":"V-component_of_CURRENTS"},"data":[0,0,0,0,0,0,0,0,0,0,0,0,0,0,0,0,0,0,0,0,0,0,0,0,0,0,0,0,0,0,0,0,0,0,0,0,0,0,0,0,0,0,0,0,0,0,0,0,0,0,0,0,0,0,0,0,0,0,0.0462,0.0462,0,0.0587,0.0589,0.0591,0.0667,0.0667,0.0666,0.0665,0.0464,0.0459,0.0454,0,0,0,0,0,0,0,0,0,0,0,0,0,0.024,0.0245,0.0462,0.0462,0.0463,0.0586,0.0589,0.0592,0.0668,0.0667,0.0666,0.0665,0.0465,0.046,0.0454,0,0,0,0,0,0,0,0,0,0,0,0,0,0.0359,0.0247,0.0462,0.0507,0.0511,0.0586,0.0589,0.0593,0.0668,0.0667,0.0666,0.0665,0.0467,0.046,0.0453,0.043,0,0,0.0431,0.0428,0,0,0,0,0,0,0,0,0.0352,0.0369,0.05,0.0504,0.0509,0.06,0.0437,0.0518,0.0668,0.0621,0.0665,0.0664,0.0472,0.0465,0.0512,0.042,0.0412,0.0431,0.0426,0.0423,0.0421,0,0,0,0,0,0,0,0.0344,0.0363,0.0523,0.05,0.0506,0.0503,0.0521,0.0455,0.0553,0.0625,0.0628,0.0623,0.0474,0.0519,0.0506,0.0409,0.0431,0.0425,0.042,0.0417,0.0278,0.0279,0,0,0,0,0,0,0.031,0.0357,0.0519,0.0526,0.0413,0.0507,0.0528,0.0581,0.0561,0.0557,0.0624,0.0626,0.0531,0.0514,0.0499,0.0466,0.0423,0.0417,0.0413,0.0278,0.0279,0.0279,0,0,0,0,0,0,0.0306,0.0326,0.0514,0.043,0.0452,0.0512,0.0572,0.0584,0.0666,0.0562,0.0554,0.0695,0.053,0.0508,0.0421,0.0457,0.0414,0.0407,0.0277,0.0278,0.0279,0.0399,0,0,0,0,0,0,0.0301,0.0326,0.0384,0.043,0.0456,0.0592,0.0572,0.0587,0.0657,0.0663,0.0618,0.0598,0.0528,0.0432,0.0414,0.0447,0.0402,0.0277,0.0278,0.0279,0.0394,0.0404,0.0412,0,0,0,0,0,0.0293,0.0383,0.0388,0.0407,0.0526,0.0593,0.0611,0.0652,0.0661,0.0721,0.0638,0.0602,0.0428,0.0426,0.0405,0.0436,0.0276,0.0277,0.0279,0.039,0.0402,0.0412,0,0,0,0,0,0,0.0312,0.0399,0.0405,0.0516,0.0556,0.0602,0.067,0.0684,0.0687,0.068,0.0586,0.0559,0.0499,0.0447,0.0448,0.04,0.0356,0.0353,0.0449,0.0459,0.0467,0.0483,0.0396,0,0,0,0,0,0.0339,0.0448,0.048,0.0575,0.06,0.0642,0.0684,0.0703,0.0692,0.0704,0.0643,0.0569,0.0491,0.0457,0.0382,0.0349,0.0299,0.0363,0.0372,0.038,0.0378,0.0311,0.0314,0.0283,0.0283,0.0283,0,0,0.0361,0.0431,0.0485,0.0587,0.0632,0.067,0.0673,0.0751,0.0767,0.0664,0.0666,0.0588,0.0484,0.0437,0.0412,0.0399,0.0369,0.0381,0.0389,0.0382,0.0313,0.0316,0.0318,0.0284,0.0284,0.0284,0,0,0.0443,0.0534,0.0628,0.0666,0.0731,0.0744,0.077,0.0811,0.0831,0.0798,0.0721,0.066,0.0563,0.05,0.0449,0.0465,0.0408,0.0462,0.0527,0.0464,0.0466,0.0467,0.0442,0.044,0.0479,0.0479,0.0479,0,0.0447,0.0581,0.0658,0.0727,0.0748,0.0775,0.0816,0.0846,0.0839,0.0826,0.0803,0.0662,0.0591,0.0516,0.0527,0.0487,0.0449,0.0498,0.0477,0.0476,0.0475,0.0448,0.0444,0.0485,0.0484,0.0484,0.0483,0,0.056,0.066,0.072,0.081,0.0847,0.0905,0.0905,0.0935,0.0929,0.0915,0.0855,0.0751,0.066,0.0655,0.0589,0.056,0.0536,0.0488,0.0455,0.0486,0.0456,0.045,0.0493,0.0491,0.0489,0.0488,0,0,0.0543,0.0756,0.0765,0.08,0.089,0.0904,0.0953,0.0969,0.0965,0.095,0.091,0.0829,0.0782,0.0722,0.0652,0.0622,0.0602,0.0569,0.0563,0.0555,0.0488,0.0472,0.0463,0.0548,0.0546,0.0545,0.0483,0,0.0583,0.0724,0.0817,0.0881,0.0928,0.0965,0.0993,0.1003,0.0991,0.0954,0.0893,0.0814,0.0805,0.0743,0.0719,0.0603,0.0585,0.0625,0.0448,0.0444,0.0434,0.0454,0.0541,0.0478,0.0476,0.0475,0.0474,0,0.0614,0.0713,0.0816,0.0903,0.092,0.0952,0.0961,0.099,0.0977,0.0954,0.0907,0.0837,0.078,0.0747,0.0641,0.0665,0.0594,0.0532,0.0527,0.046,0.0415,0.0428,0.0461,0.0463,0.0463,0.0464,0.0465,0,0.0521,0.0671,0.0754,0.0786,0.0904,0.0932,0.0968,0.099,0.0987,0.0942,0.0901,0.0835,0.0757,0.0686,0.0594,0.0601,0.0467,0.0446,0.0378,0.0377,0.0357,0.0356,0.0366,0.0366,0.0366,0.0367,0.0367,0,0.0512,0.0558,0.0719,0.0757,0.0805,0.0881,0.09,0.0932,0.0928,0.0904,0.0887,0.0821,0.0733,0.065,0.0585,0.0474,0.046,0.0392,0.0352,0.0415,0.042,0.0354,0.0354,0.0364,0.0365,0.0365,0.0366,0,0.0429,0.0551,0.0625,0.0752,0.0787,0.0809,0.0881,0.0875,0.0898,0.0855,0.0833,0.0782,0.0701,0.0629,0.0488,0.0443,0.0341,0.0298,0.04,0.0366,0.0305,0.0312,0.0228,0.0226,0.0225,0.0225,0.0224,0,0.0431,0.0474,0.06,0.0636,0.0713,0.0763,0.0803,0.0853,0.0844,0.083,0.0789,0.0715,0.0675,0.05,0.043,0.0319,0.0294,0.0251,0.0272,0.0317,0.0287,0.0295,0.0303,0.0222,0.0222,0.0222,0.0221,0,0.0406,0.0445,0.051,0.0592,0.0645,0.0692,0.0748,0.0729,0.0773,0.0773,0.0723,0.0657,0.0563,0.0475,0.0387,0.0304,0.0289,0.024,0.0242,0.0261,0.0309,0.0282,0.0291,0.0218,0.0218,0.0219,0.0219,0,0.0374,0.0393,0.0473,0.0536,0.059,0.0628,0.0662,0.0673,0.0682,0.0685,0.0659,0.0605,0.0574,0.0464,0.038,0.0308,0.0291,0.0262,0.0262,0.0265,0.0299,0.0367,0.026,0,0,0,0,0,0.0355,0.037,0.0411,0.0491,0.0531,0.0581,0.0628,0.0655,0.0687,0.0644,0.0659,0.0585,0.048,0.0441,0.0363,0.0354,0.0272,0.0258,0.0238,0.0198,0.0202,0.0233,0,0,0,0,0,0,0.0342,0.0373,0.0397,0.0438,0.0477,0.0536,0.0572,0.0602,0.0589,0.0608,0.0557,0.0553,0.0456,0.0524,0.0358,0.0338,0.031,0.0222,0.022,0.0195,0.0199,0.0202,0.0236,0,0,0,0,0]}]]